#timestamp,LO_Frequency,Hit 
1505757615.4,286046998.6,N
1505757635.2,286046999.5,N
1505757655.0,286046998.5,N
1505757655.9,286046998.5,N
1505757675.8,286047000.7,N
1505757695.6,286047002.4,N
1505757715.4,286047000.5,N
1505757735.3,286047000.0,N
1505757755.1,286047000.3,N
1505757756.0,286047000.3,N
1505757775.8,286046999.4,N
1505757795.6,286046998.9,N
1505757815.5,286046998.6,N
1505757835.3,286046998.9,N
1505757855.1,286046998.8,N
1505757875.9,286047002.6,N
1505757895.7,286047002.6,N
1505757915.5,286047000.2,N
1505757935.4,286047000.1,N
1505757955.2,286047000.4,N
1505757975.0,286047001.7,N
1505757975.9,286047001.7,N
1505757995.8,286047005.4,P
1505758015.6,286047003.0,N
1505758035.4,286047002.9,N
1505758055.3,286047004.1,N
1505758075.1,286047004.3,N
1505758095.8,286047004.0,N
1505758115.7,286047001.4,N
1505758135.5,286046999.9,N
1505758155.3,286047002.0,N
1505758175.2,286047004.2,N
1505758195.9,286047004.2,N
1505758215.7,286047003.9,N
1505758235.5,286047003.1,N
1505758255.4,286047003.3,N
1505758275.2,286047003.5,N
1505758295.0,286047002.1,N
1505758295.9,286047002.1,N
1505758315.8,286047005.0,P
1505758335.6,286047003.5,P
1505758355.4,286047003.2,P
1505758375.3,286047003.2,P
1505758395.1,286046998.8,P
1505758415.9,286046997.6,N
1505758435.7,286046999.2,N
1505758455.5,286046997.7,N
1505758475.3,286046998.2,N
1505758495.2,286046997.8,N
1505758515.0,286046995.1,N
1505758515.9,286046995.1,N
1505758535.7,286046996.6,N
1505758555.6,286046997.4,N
1505758575.4,286046996.9,N
1505758595.2,286047001.1,N
1505758615.1,286046998.5,N
1505758616.0,286046998.5,N
1505758635.8,286047000.2,N
1505758655.6,286047002.2,N
1505758675.5,286047001.6,N
1505758695.3,286047002.5,N
1505758715.1,286047000.7,N
1505758735.9,286047002.5,N
1505758755.7,286046999.8,N
1505758775.5,286046998.6,N
1505758795.3,286047001.0,N
1505758815.2,286047000.9,N
1505758835.0,286046998.3,N
1505758835.9,286046998.3,N
1505758855.7,286047000.1,N
1505758875.6,286047000.7,N
1505758895.4,286047000.0,N
1505758915.2,286047000.2,N
1505758935.1,286047001.3,N
1505758936.0,286047001.3,N
1505758955.8,286047004.4,N
1505758975.6,286047002.5,N
1505758995.5,286047002.8,N
1505759015.3,286047000.3,N
1505759035.1,286046998.1,N
1505759055.9,286047002.4,N
1505759075.7,286047001.8,N
1505759095.5,286047002.2,N
1505759115.4,286046999.4,N
1505759135.2,286047002.3,N
1505759155.0,286047001.6,N
1505759155.9,286047001.6,N
1505759175.8,286047002.8,N
1505759195.6,286047003.8,N
1505759215.4,286047001.9,N
1505759235.2,286047001.5,N
1505759255.1,286047002.3,N
1505759256.0,286047002.3,N
1505759275.8,286047004.2,N
1505759295.6,286047002.4,N
1505759315.5,286047002.7,N
1505759335.3,286047000.6,N
1505759355.1,286047004.4,N
1505759375.9,286047003.7,N
1505759395.7,286047001.6,N
1505759415.5,286047003.8,N
1505759435.4,286047004.8,P
1505759455.2,286047002.4,N
1505759475.0,286047002.0,N
1505759475.9,286047002.0,N
1505759495.8,286047003.1,N
1505759515.6,286047005.9,P
1505759535.4,286047000.2,N
1505759555.3,286047002.6,N
1505759575.1,286047002.2,N
1505759595.8,286047004.2,N
1505759615.7,286047003.9,N
1505759635.5,286047002.5,N
1505759655.3,286047001.9,N
1505759675.2,286047003.0,N
1505759695.9,286047003.2,N
1505759715.7,286047005.5,P
1505759735.6,286047005.9,P
1505759755.4,286047002.2,N
1505759775.2,286047001.5,N
1505759795.1,286047002.9,N
1505759796.0,286047002.9,N
1505759815.8,286047002.5,N
1505759835.6,286047001.4,N
1505759855.5,286047002.2,N
1505759875.3,286047002.2,N
1505759895.1,286047005.7,P
1505759915.9,286047002.5,N
1505759935.7,286047000.9,N
1505759955.5,286046998.7,N
1505759975.3,286047001.0,N
1505759995.2,286047002.4,N
1505760015.0,286047002.1,N
1505760015.9,286047002.1,N
1505760035.7,286047002.1,N
1505760055.6,286046998.2,N
1505760075.4,286047000.3,N
1505760095.2,286047002.8,N
1505760115.1,286047000.9,N
1505760116.0,286047000.9,N
1505760135.8,286046998.6,N
1505760155.6,286047000.6,N
1505760175.5,286047002.3,N
1505760195.3,286047001.3,N
1505760215.1,286047002.4,N
1505760235.9,286046999.8,N
1505760255.7,286046999.8,N
1505760275.5,286047004.4,N
1505760295.3,286047002.2,N
1505760315.2,286047002.8,N
1505760335.0,286047002.3,N
1505760335.9,286047002.3,N
1505760355.7,286047003.2,N
1505760375.6,286047001.9,N
1505760395.4,286047003.5,N
1505760415.2,286047004.4,N
1505760435.1,286047004.3,N
1505760436.0,286047004.3,N
1505760455.8,286047000.0,N
1505760475.6,286047001.6,N
1505760495.5,286047001.7,N
1505760515.3,286047005.3,P
1505760535.1,286047001.7,N
1505760555.9,286047004.4,N
1505760575.7,286046999.7,N
1505760595.5,286047001.2,N
1505760615.4,286047000.0,N
1505760635.2,286047001.7,N
1505760655.0,286047003.4,N
1505760655.9,286047003.4,N
1505760675.8,286047002.0,N
1505760695.6,286047001.7,N
1505760715.4,286047001.7,N
1505760735.3,286047005.6,P
1505760755.1,286047001.1,N
1505760756.0,286047001.1,N
1505760775.8,286046998.8,N
1505760795.7,286046999.0,N
1505760815.5,286046997.1,N
1505760835.3,286046998.6,N
1505760855.2,286046996.8,N
1505760875.9,286047000.1,N
1505760895.7,286047002.0,N
1505760915.5,286046998.4,N
1505760935.4,286047000.3,N
1505760955.2,286047001.1,N
1505760975.0,286047001.6,N
1505760975.9,286047001.6,N
1505760995.8,286047002.5,N
1505761015.6,286047005.6,N
1505761035.4,286047003.3,N
1505761055.3,286047004.7,N
1505761075.1,286047005.1,N
1505761076.0,286047005.1,N
1505761095.8,286047003.0,N
1505761115.7,286047003.9,N
1505761135.5,286047001.7,N
1505761155.3,286046999.7,N
1505761175.1,286047004.0,N
1505761195.9,286047003.3,N
